Regional Weather Roundup
Issued by NWS

Home | Current Version | Previous Version | Graphics & Text | Print | Product List | Glossary Off
Versions: 1 2 3 4 5 6 7 8 9 10 11 12 13 14 15 16 17 18 19 20 21 22 23 24 25 26 27 28 29 30 31 32 33 34 35 36 37 38 39 40 41 42 43 44 45 46 47 48 49 50

000
ASUS43 KOAX 080302
RWRNE

WEATHER ROUNDUP FOR NEBRASKA
NATIONAL WEATHER SERVICE OMAHA NE
900 PM CST WED DEC 07 2016

NOTES: SATELLITE DATA IS BEING USED TO AUGMENT CLOUD COVER ABOVE
       12000 FEET.
       "FAIR" INDICATES FEW OR NO CLOUDS BELOW 12,000 FEET WITH NO
       SIGNIFICANT WEATHER AND/OR OBSTRUCTIONS TO VISIBILITY.

  * THESE STATIONS DO NOT REPORT WEATHER SUCH AS RAIN...SNOW OR FOG.

NEZ001>004-019>022-054>056-080400-
NEBRASKA PANHANDLE

CITY           SKY/WX    TMP DP  RH WIND       PRES   REMARKS
SCOTTSBLUFF    CLEAR      0  -7  72 W9        30.44R WCI -15
ALLIANCE       CLEAR     -2  -8  76 W8        30.40R WCI -17
CHADRON        CLEAR      5  -6  60 W18       30.47R WCI -15
SIDNEY         CLEAR      0  -6  76 NW13      30.40R WCI -18
$$

NEZ057>060-069>072-079>082-080400-
SOUTHWEST NEBRASKA

CITY           SKY/WX    TMP DP  RH WIND       PRES   REMARKS
NORTH PLATTE   CLEAR      5   0  79 NW8       30.47R WCI  -8
IMPERIAL       CLEAR      4  -2  76 NW9       30.46R WCI -10
LEXINGTON      CLEAR     11   3  70 NW8       30.47R WCI   0
MCCOOK         CLEAR      7   3  84 W12       30.48R WCI  -8
$$

NEZ005>010-023>029-035>040-094-080400-
NORTH CENTRAL NEBRASKA

CITY           SKY/WX    TMP DP  RH WIND       PRES   REMARKS
VALENTINE      CLEAR      8  -3  61 NW13G20   30.46R WCI  -8
AINSWORTH      CLEAR      9   1  68 NW17G25   30.43S WCI  -9
BROKEN BOW     CLEAR     11   2  67 NW10      30.44R WCI  -3
ORD            CLEAR     13   0  56 NW17      30.44R WCI  -4
$$

NEZ041-046>049-061>064-073>077-083>087-080400-
SOUTH CENTRAL NEBRASKA

CITY           SKY/WX    TMP DP  RH WIND       PRES   REMARKS
GRAND ISLAND   CLEAR     15   4  61 NW16      30.46R WCI  -1
AURORA         CLEAR     15   4  61 NW13      30.46R WCI   2
HASTINGS       CLEAR     14   4  64 NW10      30.47R WCI   1
HEBRON         CLEAR     17   7  67 NW6       30.48S WCI   8
HOLDREGE       CLEAR     10   2  72 NW8       30.47R WCI  -3
KEARNEY *      CLEAR     12   1  62 NW9       30.47R WCI   0
YORK           CLEAR     16   5  62 NW14      30.45S WCI   1
$$

NEZ011>018-030>034-042>045-080400-
NORTHEAST NEBRASKA

CITY           SKY/WX    TMP DP  RH WIND       PRES   REMARKS
NORFOLK        CLEAR     13   1  59 NW22G29   30.40R WCI  -6
ALBION         CLEAR     14   3  61 NW20G25   30.43R WCI  -4
BLAIR          CLEAR     17   7  64 W12G18    30.40R WCI   5
FREMONT        CLEAR     16   7  65 NW18      30.43S WCI   0
TEKAMAH        CLEAR     17   6  62 NW17      30.42R WCI   1
WAYNE          CLEAR     14   4  64 NW15G29   30.40S WCI  -1
$$

NEZ050>053-065>068-078-088>093-080400-
SOUTHEAST NEBRASKA

CITY           SKY/WX    TMP DP  RH WIND       PRES   REMARKS
LINCOLN        CLEAR     19   5  54 NW14      30.47R WCI   6
OMAHA EPPLEY   CLEAR     19   5  54 W17G23    30.42R WCI   4
BEATRICE       CLEAR     17   8  67 NW8       30.46R WCI   7
FALLS CITY     CLEAR     20   9  62 W13       30.44R WCI   7
NEBRASKA CITY  CLEAR     19   4  52 NW14      30.43S WCI   6
$$

NEZ044-045-051>053-067-080400-
OMAHA AREA

CITY           SKY/WX    TMP DP  RH WIND       PRES   REMARKS
OMAHA EPPLEY   CLEAR     19   5  54 W17G23    30.42R WCI   4
BLAIR          CLEAR     17   7  64 W12G18    30.40R WCI   5
FREMONT        CLEAR     16   7  65 NW18      30.43S WCI   0
MILLARD        CLEAR     20   5  52 NW13G22   30.44R WCI   7
OFFUTT AFB     CLEAR     19   5  54 NW17G24   30.42R WCI   4
WAHOO          FAIR      18   6  58 NW20G25   30.43S WCI   2
$$



USA.gov is the U.S. government's official web portal to all federal, state and local government web resources and services.